Location: Ripley
(48.3812°N, 115.4473°W)
Time: 01:59:54
(UTC+00:00)

RS-15 - Pass Details

Date: 29 June 2022
Orbit: 1881 x 2163 km, 64.8° (Epoch: 10 August)

Event Time Altitude Azimuth Distance (km) Brightness Sun altitude
Rises 09:27:20 0° 321° (NW) 5,700 10.8 -14.8°
Reaches altitude 10° 09:31:24 10° 312° (NW) 4,685 10.2 -14.6°
Maximum altitude 09:41:17 31° 258° (WSW) 3,254 8.9 -13.8°
Enters shadow 09:48:52 16° 210° (SSW) 4,087 9.0 -13.2°
